{"data":{"norad_id":48019,"epoch":"2026-09-19T23:33:56.020032Z","epoch_age_seconds":74603,"freshness":"FRESH","line1":"1 48019U 21024AU  26262.98189838  .00001661  00000+0  65259-4 0  9997","line2":"2 48019  53.1592 122.6682 0001170  96.2163 263.8972 15.31708994304698","mean_motion":15.31708994,"eccentricity":0.000117,"inclination_deg":53.1592,"raan_deg":122.6682,"arg_perigee_deg":96.2163,"mean_anomaly_deg":263.8972,"bstar":6.5259e-5,"rev_number":30469,"period_min":94.012635927631,"perigee_km":469.91186923923,"apogee_km":471.51450018246,"semimajor_km":6848.8501847108,"source":"CELESTRAK","updated_at":"2026-09-20T09:00:38.760172Z"}}